Showing default

HEAD-3D, 57629

Orbit data source: Space-Track

HEAD-3D, 57629 is a payload satellite owned by HEAD (CN) in LEO that was launched on Mon, 14 Aug 2023 UTC via a KUAIZHOU-1A launch vehicle from the Xichang Space Center, China (XSC). Payload-class satellites include a variety of spacecraft equipped with specific instruments for various scientific and technological missions. These include communications satellites like Starlink; space stations such as the ISS; scientific satellites like the Hubble; Earth observation satellites from companies like Planet Labs, Umbra, and HawkEye 360; GPS; miniature CubeSats for education and research; and military/defense satellites.

Loading next visibility...
Identifier
57629, 2023-121D
Orbit
LEO
Country
Flag of CNCN / PRC
Related business
Manufacturer
IMI/CAS
Mission
Operational Commercial Communications
Bus & Motor
WN100, Unknown motor
Mass
40 kg wet, 40 kg dry
Launch date (UTC)
2023-08-14 (3 years ago)
Launch vehicle
KUAIZHOU-1A
Launch site
Xichang Space Center, China (XSC)
Object type
Payload
Rocket body
Debris
Shape & HBR
Box + 2 Pan, 1.0 m
Radar Cross Section
0.223 m², Medium (>0.1 m² and < 1m²)

Expand to show TLE details & history
Last TLE update: 21 hours ago

TLE from 21 hours ago
0 HEAD-3D
1 57629U 23121D   26172.57875845  .00000560  00000-0  13984-3 0  9994
2 57629  45.0057 272.9737 0008205 283.2565  76.7378 14.62940469152444
Epoch: 2026-06-21T13:53Z
TLE epoch observation values (Epoch: 2026-06-21T13:53:24.730Z)
Latitude
0.00002°
Longitude
154.84367°
Altitude
682.37 km
Speed
7.518 km/s
True Right ascension
18h 11m 53s
True Declination
0° 00' 00"
Sunlit
Object was in full shadow at epoch
Visualization orbit readout
Latitude
Unknown
Longitude
Unknown
Altitude
Unknown
Speed
Unknown
Apparent Right ascension
Unknown
Apparent Declination
Unknown
Sunlit
N/A
Visualization observer readout
Local Sidereal Time
21:29:11
Azimuth
Unknown
Elevation
Unknown
Doppler factor
Unknown
Orbital elements
Apogee altitude
691.054 km
Perigee altitude
679.463 km
Semi-major axis
7,063.395 km
Eccentricity
0.00082
Inclination
45.0057°
RAAN
272.9737°
Arg. of periapsis
283.2565°
True anomaly
76.82934°
Mean anomaly
76.7378°
Eccentric anomaly
76.78357°
Mean motion
3.65614 °/min
Orbital period
98.46 mins
BSTAR
0.00013984
Loading maneuver chart data...
Computing Atmospheric mass density...
Loading historical data...
Loading historical data...
Loading historical data...
Loading historical data...
Loading historical data...
Loading historical data...
Loading historical data...
Other satellites on launch #121 in the year 2023 (2023-08-14 UTC)

Documentation

Showing up to 5 results
|